,,,PA_Meas_PMT16A,,PR_Meas_QMR101_102,,RH_Meas_QMH101,,SR_Meas_QMS101,,TA_Meas_QMH101,,GenWind,,GenWind,
date,time,status,PA,status,PR,status,RH,status,SR,status,TA,status,DirAvg,status,SpdAvg,
2009-10-29, 00:00:04,VALID,1000.76,VALID,0,VALID,92.4786,VALID,0,VALID,23.5079,VALID,60,VALID,0.164063,
2009-10-29, 00:01:04,VALID,1000.76,VALID,0,VALID,92.4252,VALID,0,VALID,23.5274,VALID,62,VALID,0.197656,
2009-10-29, 00:02:04,VALID,1000.75,VALID,0,VALID,92.3566,VALID,0,VALID,23.5469,VALID,113,VALID,0.537891,
2009-10-29, 00:03:04,VALID,1000.72,VALID,0,VALID,92.3566,VALID,0,VALID,23.5256,VALID,140,VALID,0.924219,
2009-10-29, 00:04:04,VALID,1000.73,VALID,0,VALID,92.3031,VALID,0,VALID,23.5664,VALID,136,VALID,1.08125,
2009-10-29, 00:05:04,VALID,1000.68,VALID,0,VALID,92.1963,VALID,0,VALID,23.5841,VALID,132,VALID,1.24609,
2009-10-29, 00:06:04,VALID,1000.71,VALID,0,VALID,92.0895,VALID,0,VALID,23.6036,VALID,141,VALID,0.952734,
2009-10-29, 00:07:04,VALID,1000.66,VALID,0,VALID,91.9674,VALID,0,VALID,23.664,VALID,144,VALID,1.00547,
2009-10-29, 00:08:04,VALID,1000.67,VALID,0,VALID,91.6775,VALID,0,VALID,23.6427,VALID,137,VALID,1.29297,
2009-10-29, 00:09:04,VALID,1000.68,VALID,0,VALID,91.4563,VALID,0,VALID,23.7225,VALID,135,VALID,0.786328,
2009-10-29, 00:10:04,VALID,1000.67,VALID,0,VALID,91.1816,VALID,0,VALID,23.742,VALID,115,VALID,0.691016,
2009-10-29, 00:11:04,VALID,1000.64,VALID,0,VALID,90.9985,VALID,0,VALID,23.7402,VALID,116,VALID,0.811719,
2009-10-29, 00:12:04,VALID,1000.63,VALID,0,VALID,90.9374,VALID,0,VALID,23.7616,VALID,113,VALID,0.596094,
2009-10-29, 00:13:04,VALID,1000.66,VALID,0,VALID,90.8993,VALID,0,VALID,23.7597,VALID,103,VALID,0.592969,
2009-10-29, 00:14:04,VALID,1000.65,VALID,0,VALID,90.8993,VALID,0,VALID,23.7597,VALID,84,VALID,1.05,
2009-10-29, 00:15:04,VALID,1000.64,VALID,0,VALID,90.968,VALID,0,VALID,23.7988,VALID,86,VALID,1.06289,
2009-10-29, 00:16:04,VALID,1000.61,VALID,0,VALID,91.1053,VALID,0.112286,VALID,23.7775,VALID,75,VALID,1.18242,
2009-10-29, 00:17:04,VALID,1000.6,VALID,0,VALID,91.0977,VALID,0,VALID,23.7988,VALID,64,VALID,0.749609,
2009-10-29, 00:18:04,VALID,1000.57,VALID,0,VALID,91.1129,VALID,0,VALID,23.7793,VALID,64,VALID,0.779688,
2009-10-29, 00:19:04,VALID,1000.54,VALID,0,VALID,91.1663,VALID,0,VALID,23.7579,VALID,66,VALID,0.742578,
2009-10-29, 00:20:04,VALID,1000.49,VALID,0,VALID,91.2503,VALID,0.112286,VALID,23.7579,VALID,73,VALID,0.615234,
2009-10-29, 00:21:04,VALID,1000.47,VALID,0,VALID,91.3037,VALID,0.112286,VALID,23.7579,VALID,73,VALID,0.389453,
2009-10-29, 00:22:04,VALID,1000.45,VALID,0,VALID,91.3342,VALID,0,VALID,23.7597,VALID,73,VALID,0.215625,
2009-10-29, 00:23:04,VALID,1000.45,VALID,0,VALID,91.3266,VALID,0,VALID,23.7579,VALID,73,VALID,0.157813,
2009-10-29, 00:24:04,VALID,1000.4,VALID,0,VALID,91.3494,VALID,0,VALID,23.7384,VALID,73,VALID,0.145313,
2009-10-29, 00:25:04,VALID,1000.41,VALID,0,VALID,91.3571,VALID,0.112286,VALID,23.7402,VALID,74,VALID,0.0128906,
2009-10-29, 00:26:04,VALID,1000.43,VALID,0,VALID,91.2884,VALID,0,VALID,23.7402,VALID,110,VALID,0.808594,
2009-10-29, 00:27:04,VALID,1000.45,VALID,0,VALID,91.174,VALID,0,VALID,23.7402,VALID,104,VALID,0.650781,
2009-10-29, 00:28:04,VALID,1000.43,VALID,0,VALID,91.1053,VALID,0,VALID,23.7189,VALID,97,VALID,0.76875,
2009-10-29, 00:29:04,VALID,1000.41,VALID,0,VALID,91.0443,VALID,0,VALID,23.7402,VALID,97,VALID,0.574609,
2009-10-29, 00:30:04,VALID,1000.42,VALID,0,VALID,90.9909,VALID,0,VALID,23.7207,VALID,98,VALID,0.628906,
2009-10-29, 00:31:04,VALID,1000.41,VALID,0,VALID,90.9756,VALID,0,VALID,23.7616,VALID,98,VALID,0.464453,
2009-10-29, 00:32:04,VALID,1000.42,VALID,0,VALID,90.968,VALID,0,VALID,23.742,VALID,100,VALID,0.588281,
2009-10-29, 00:33:04,VALID,1000.41,VALID,0,VALID,91.0061,VALID,0,VALID,23.7207,VALID,98,VALID,0.785547,
2009-10-29, 00:34:04,VALID,1000.41,VALID,0,VALID,91.0366,VALID,0,VALID,23.742,VALID,113,VALID,0.805078,
2009-10-29, 00:35:04,VALID,1000.38,VALID,0,VALID,91.0748,VALID,0,VALID,23.742,VALID,120,VALID,0.282031,
2009-10-29, 00:36:04,VALID,1000.4,VALID,0,VALID,91.1129,VALID,0,VALID,23.7207,VALID,120,VALID,0.282031,
2009-10-29, 00:37:04,VALID,1000.39,VALID,0,VALID,91.1434,VALID,0,VALID,23.7207,VALID,120,VALID,0.180469,
2009-10-29, 00:38:04,VALID,1000.35,VALID,0,VALID,91.2731,VALID,0,VALID,23.7207,VALID,116,VALID,0.448047,
2009-10-29, 00:39:04,VALID,1000.35,VALID,0,VALID,91.3113,VALID,0,VALID,23.7207,VALID,116,VALID,0.442187,
2009-10-29, 00:40:04,VALID,1000.33,VALID,0,VALID,91.3647,VALID,0,VALID,23.7207,VALID,108,VALID,0.584766,
2009-10-29, 00:41:04,VALID,1000.29,VALID,0,VALID,91.38,VALID,0,VALID,23.742,VALID,105,VALID,0.589063,
2009-10-29, 00:42:04,VALID,1000.28,VALID,0,VALID,91.3647,VALID,0,VALID,23.7207,VALID,105,VALID,0.749219,
2009-10-29, 00:43:04,VALID,1000.27,VALID,0,VALID,91.3113,VALID,0,VALID,23.7616,VALID,105,VALID,0.792578,
2009-10-29, 00:44:04,VALID,1000.26,VALID,0,VALID,91.3647,VALID,0,VALID,23.742,VALID,105,VALID,0.729297,
2009-10-29, 00:45:04,VALID,1000.24,VALID,0,VALID,91.2274,VALID,0,VALID,23.7597,VALID,105,VALID,0.503125,
2009-10-29, 00:46:04,VALID,1000.23,VALID,0,VALID,91.1358,VALID,0,VALID,23.7384,VALID,110,VALID,0.807031,
2009-10-29, 00:47:04,VALID,1000.2,VALID,0,VALID,91.09,VALID,0.112286,VALID,23.7189,VALID,120,VALID,0.774219,
2009-10-29, 00:48:04,VALID,1000.19,VALID,0,VALID,91.1511,VALID,0,VALID,23.7189,VALID,119,VALID,0.730469,
2009-10-29, 00:49:04,VALID,1000.18,VALID,0,VALID,91.235,VALID,0.112286,VALID,23.6994,VALID,114,VALID,0.6625,
2009-10-29, 00:50:04,VALID,1000.12,VALID,0,VALID,91.2274,VALID,0.112286,VALID,23.7012,VALID,116,VALID,0.587109,
2009-10-29, 00:51:04,VALID,1000.14,VALID,0,VALID,91.2731,VALID,0.112286,VALID,23.6817,VALID,115,VALID,0.497266,
2009-10-29, 00:52:04,VALID,1000.14,VALID,0,VALID,91.2884,VALID,0,VALID,23.6817,VALID,121,VALID,0.239844,
2009-10-29, 00:53:04,VALID,1000.14,VALID,0,VALID,91.3876,VALID,0.112286,VALID,23.6604,VALID,146,VALID,0.700391,
2009-10-29, 00:54:04,VALID,1000.11,VALID,0,VALID,91.4563,VALID,0,VALID,23.6409,VALID,144,VALID,0.692969,
2009-10-29, 00:55:04,VALID,1000.12,VALID,0,VALID,91.4868,VALID,0.112286,VALID,23.6409,VALID,143,VALID,0.503516,
2009-10-29, 00:56:04,VALID,1000.13,VALID,0,VALID,91.5326,VALID,0.112286,VALID,23.6604,VALID,157,VALID,0.975391,
2009-10-29, 00:57:04,VALID,1000.15,VALID,0,VALID,91.4868,VALID,0.112286,VALID,23.6604,VALID,146,VALID,1.10391,
2009-10-29, 00:58:04,VALID,1000.12,VALID,0,VALID,91.3037,VALID,0.112286,VALID,23.6604,VALID,142,VALID,0.880469,
2009-10-29, 00:59:04,VALID,1000.11,VALID,0,VALID,91.1053,VALID,0.112286,VALID,23.6799,VALID,135,VALID,1.07891,
2009-10-29, 01:00:04,VALID,1000.09,VALID,0,VALID,90.9756,VALID,0,VALID,23.6817,VALID,126,VALID,1.60195,
2009-10-29, 01:01:04,VALID,1000.03,VALID,0,VALID,90.8688,VALID,0,VALID,23.7207,VALID,125,VALID,1.37305,
2009-10-29, 01:02:04,VALID,1000.04,VALID,0,VALID,90.7238,VALID,0,VALID,23.7616,VALID,116,VALID,1.06992,
2009-10-29, 01:03:04,VALID,999.996,VALID,0,VALID,90.6475,VALID,0,VALID,23.7597,VALID,105,VALID,0.797656,
2009-10-29, 01:04:04,VALID,1000.03,VALID,0,VALID,90.5483,VALID,0,VALID,23.8006,VALID,116,VALID,0.370313,
2009-10-29, 01:05:04,VALID,1000.02,VALID,0,VALID,90.472,VALID,0,VALID,23.7811,VALID,113,VALID,0,
2009-10-29, 01:06:04,VALID,1000,VALID,0,VALID,90.4339,VALID,0,VALID,23.7597,VALID,111,VALID,0.352734,
2009-10-29, 01:07:04,VALID,999.966,VALID,0,VALID,90.5331,VALID,0,VALID,23.7616,VALID,98,VALID,0.539063,
2009-10-29, 01:08:04,VALID,999.972,VALID,0,VALID,90.6017,VALID,0,VALID,23.7597,VALID,89,VALID,0.572656,
2009-10-29, 01:09:04,VALID,999.923,VALID,0,VALID,90.5483,VALID,0,VALID,23.7597,VALID,88,VALID,0.454297,
2009-10-29, 01:10:04,VALID,999.92,VALID,0,VALID,90.6094,VALID,0,VALID,23.7616,VALID,86,VALID,0.509766,
2009-10-29, 01:11:04,VALID,999.912,VALID,0,VALID,90.6399,VALID,0,VALID,23.7616,VALID,49,VALID,0.514063,
2009-10-29, 01:12:04,VALID,999.897,VALID,0,VALID,90.5407,VALID,0,VALID,23.7207,VALID,46,VALID,0.424219,
2009-10-29, 01:13:04,VALID,999.893,VALID,0,VALID,90.6551,VALID,0,VALID,23.703,VALID,46,VALID,0.260547,
2009-10-29, 01:14:04,VALID,999.917,VALID,0,VALID,90.7085,VALID,0,VALID,23.6622,VALID,46,VALID,0.223828,
2009-10-29, 01:15:04,VALID,999.906,VALID,0,VALID,90.9146,VALID,0,VALID,23.664,VALID,46,VALID,0.316797,
2009-10-29, 01:16:04,VALID,999.918,VALID,0,VALID,91.1511,VALID,0,VALID,23.6622,VALID,51,VALID,0.230078,
2009-10-29, 01:17:04,VALID,999.878,VALID,0,VALID,91.1663,VALID,0,VALID,23.6817,VALID,51,VALID,0.185156,
2009-10-29, 01:18:04,VALID,999.902,VALID,0,VALID,91.3037,VALID,0,VALID,23.6817,VALID,82,VALID,0.585156,
2009-10-29, 01:19:04,VALID,999.889,VALID,0,VALID,91.3723,VALID,0,VALID,23.7207,VALID,96,VALID,0.719141,
2009-10-29, 01:20:04,VALID,999.852,VALID,0,VALID,91.2503,VALID,0,VALID,23.7402,VALID,96,VALID,0.353906,
2009-10-29, 01:21:04,VALID,999.844,VALID,0,VALID,91.0595,VALID,0,VALID,23.7793,VALID,96,VALID,0.453906,
2009-10-29, 01:22:04,VALID,999.855,VALID,0,VALID,91.0137,VALID,0,VALID,23.7793,VALID,116,VALID,0.667969,
2009-10-29, 01:23:04,VALID,999.871,VALID,0,VALID,90.8993,VALID,0,VALID,23.8201,VALID,116,VALID,0.601563,
2009-10-29, 01:24:04,VALID,999.833,VALID,0,VALID,90.762,VALID,0,VALID,23.8201,VALID,108,VALID,0.460156,
2009-10-29, 01:25:04,VALID,999.855,VALID,0,VALID,90.7925,VALID,0,VALID,23.7988,VALID,105,VALID,0.399219,
2009-10-29, 01:26:04,VALID,999.842,VALID,0,VALID,90.7009,VALID,0,VALID,23.7988,VALID,100,VALID,0.402734,
2009-10-29, 01:27:04,VALID,999.841,VALID,0,VALID,90.617,VALID,0,VALID,23.7988,VALID,100,VALID,0.480078,
2009-10-29, 01:28:04,VALID,999.848,VALID,0,VALID,90.7009,VALID,0,VALID,23.8006,VALID,112,VALID,0.805078,
2009-10-29, 01:29:04,VALID,999.808,VALID,0,VALID,90.6704,VALID,0,VALID,23.7793,VALID,89,VALID,0.551953,
2009-10-29, 01:30:04,VALID,999.764,VALID,0,VALID,90.7543,VALID,0,VALID,23.7793,VALID,124,VALID,0.791016,
2009-10-29, 01:31:04,VALID,999.747,VALID,0,VALID,90.7925,VALID,0,VALID,23.7988,VALID,97,VALID,0.785937,
2009-10-29, 01:32:04,VALID,999.743,VALID,0,VALID,90.617,VALID,0,VALID,23.8396,VALID,97,VALID,0.339453,
2009-10-29, 01:33:04,VALID,999.698,VALID,0,VALID,90.5331,VALID,0,VALID,23.8591,VALID,97,VALID,0.222656,
2009-10-29, 01:34:04,VALID,999.677,VALID,0,VALID,90.5788,VALID,0,VALID,23.8183,VALID,97,VALID,0.269531,
2009-10-29, 01:35:04,VALID,999.636,VALID,0,VALID,90.5331,VALID,0,VALID,23.7988,VALID,91,VALID,0.248047,
2009-10-29, 01:36:04,VALID,999.637,VALID,0,VALID,90.5026,VALID,0,VALID,23.8006,VALID,82,VALID,0.199609,
2009-10-29, 01:37:04,VALID,999.631,VALID,0,VALID,90.5941,VALID,0,VALID,23.7597,VALID,82,VALID,0.205078,
2009-10-29, 01:38:04,VALID,999.636,VALID,0,VALID,90.6246,VALID,0,VALID,23.7207,VALID,82,VALID,0.242578,
2009-10-29, 01:39:04,VALID,999.64,VALID,0,VALID,90.8001,VALID,0,VALID,23.7225,VALID,82,VALID,0.365234,
2009-10-29, 01:40:04,VALID,999.612,VALID,0,VALID,90.8383,VALID,0,VALID,23.7225,VALID,27,VALID,0.383594,
2009-10-29, 01:41:04,VALID,999.623,VALID,0,VALID,91.0366,VALID,0,VALID,23.6817,VALID,27,VALID,0.373437,
2009-10-29, 01:42:04,VALID,999.642,VALID,0,VALID,91.0214,VALID,0,VALID,23.6622,VALID,27,VALID,0.361328,
2009-10-29, 01:43:04,VALID,999.674,VALID,0,VALID,91.029,VALID,0,VALID,23.664,VALID,27,VALID,0.334766,
2009-10-29, 01:44:04,VALID,999.666,VALID,0,VALID,91.1206,VALID,0,VALID,23.664,VALID,27,VALID,0.316797,
2009-10-29, 01:45:04,VALID,999.661,VALID,0,VALID,91.2503,VALID,0,VALID,23.6232,VALID,27,VALID,0.399219,
2009-10-29, 01:46:04,VALID,999.667,VALID,0,VALID,91.3342,VALID,0,VALID,23.6445,VALID,19,VALID,0.542969,
2009-10-29, 01:47:04,VALID,999.675,VALID,0,VALID,91.3952,VALID,0,VALID,23.5841,VALID,4,VALID,0.530859,
2009-10-29, 01:48:04,VALID,999.652,VALID,0,VALID,91.502,VALID,0,VALID,23.5859,VALID,2,VALID,0.543359,
2009-10-29, 01:49:04,VALID,999.611,VALID,0,VALID,91.5707,VALID,0,VALID,23.5451,VALID,2,VALID,0.459766,
2009-10-29, 01:50:04,VALID,999.579,VALID,0,VALID,91.6165,VALID,0,VALID,23.5451,VALID,2,VALID,0.5125,
2009-10-29, 01:51:04,VALID,999.571,VALID,0,VALID,91.708,VALID,0,VALID,23.5469,VALID,2,VALID,0.341406,
2009-10-29, 01:52:04,VALID,999.595,VALID,0,VALID,91.6088,VALID,0,VALID,23.5274,VALID,2,VALID,0.251172,
2009-10-29, 01:53:04,VALID,999.567,VALID,0,VALID,91.6012,VALID,0,VALID,23.4671,VALID,2,VALID,0.285937,
2009-10-29, 01:54:04,VALID,999.542,VALID,0,VALID,91.6699,VALID,0,VALID,23.4493,VALID,2,VALID,0.308984,
2009-10-29, 01:55:04,VALID,999.593,VALID,0,VALID,91.792,VALID,0,VALID,23.428,VALID,2,VALID,0.130469,
2009-10-29, 01:56:04,VALID,999.544,VALID,0,VALID,91.7767,VALID,0,VALID,23.4298,VALID,2,VALID,0,
2009-10-29, 01:57:04,VALID,999.599,VALID,0,VALID,91.8225,VALID,0,VALID,23.3695,VALID,2,VALID,0,
2009-10-29, 01:58:04,VALID,999.599,VALID,0,VALID,91.9064,VALID,0,VALID,23.3908,VALID,2,VALID,0,
2009-10-29, 01:59:04,VALID,999.598,VALID,0,VALID,91.9751,VALID,0,VALID,23.3695,VALID,2,VALID,0,
2009-10-29, 02:00:04,VALID,999.627,VALID,0,VALID,91.9903,VALID,0,VALID,23.3908,VALID,2,VALID,0,
2009-10-29, 02:01:04,VALID,999.605,VALID,0,VALID,92.0361,VALID,0,VALID,23.35,VALID,2,VALID,0,
2009-10-29, 02:02:04,VALID,999.593,VALID,0,VALID,92.059,VALID,0,VALID,23.3305,VALID,2,VALID,0,
2009-10-29, 02:03:04,VALID,999.604,VALID,0,VALID,92.1429,VALID,0,VALID,23.311,VALID,2,VALID,0,
2009-10-29, 02:04:04,VALID,999.568,VALID,0,VALID,92.2955,VALID,0,VALID,23.3305,VALID,2,VALID,0,
2009-10-29, 02:05:04,VALID,999.54,VALID,0,VALID,92.4481,VALID,0,VALID,23.35,VALID,2,VALID,0,
2009-10-29, 02:06:04,VALID,999.529,VALID,0,VALID,92.5168,VALID,0,VALID,23.3908,VALID,2,VALID,0,
2009-10-29, 02:07:04,VALID,999.518,VALID,0,VALID,92.5091,VALID,0,VALID,23.4103,VALID,2,VALID,0,
2009-10-29, 02:08:04,VALID,999.506,VALID,0,VALID,92.2955,VALID,0,VALID,23.3695,VALID,2,VALID,0.315625,
2009-10-29, 02:09:04,VALID,999.543,VALID,0,VALID,92.2574,VALID,0,VALID,23.3713,VALID,9,VALID,0.210156,
2009-10-29, 02:10:04,VALID,999.564,VALID,0,VALID,92.3413,VALID,0,VALID,23.3713,VALID,9,VALID,0.299609,
2009-10-29, 02:11:04,VALID,999.552,VALID,0,VALID,92.2803,VALID,0,VALID,23.3518,VALID,9,VALID,0.155078,
2009-10-29, 02:12:04,VALID,999.555,VALID,0,VALID,92.2803,VALID,0,VALID,23.3323,VALID,9,VALID,0.151172,
2009-10-29, 02:13:04,VALID,999.568,VALID,0,VALID,92.2879,VALID,0,VALID,23.3323,VALID,9,VALID,0.282422,
2009-10-29, 02:14:04,VALID,999.585,VALID,0,VALID,92.3413,VALID,0,VALID,23.311,VALID,146,VALID,0.646875,
2009-10-29, 02:15:04,VALID,999.588,VALID,0,VALID,92.6312,VALID,0,VALID,23.389,VALID,147,VALID,0.776953,
2009-10-29, 02:16:04,VALID,999.603,VALID,0,VALID,92.7609,VALID,0,VALID,23.4458,VALID,147,VALID,0.744922,
2009-10-29, 02:17:04,VALID,999.58,VALID,0,VALID,92.7762,VALID,0,VALID,23.5256,VALID,147,VALID,0.519531,
2009-10-29, 02:18:04,VALID,999.559,VALID,0,VALID,92.7685,VALID,0.112286,VALID,23.5628,VALID,147,VALID,0.646875,
2009-10-29, 02:19:04,VALID,999.566,VALID,0,VALID,92.6465,VALID,0.112286,VALID,23.6232,VALID,147,VALID,0.473047,
2009-10-29, 02:20:04,VALID,999.57,VALID,0,VALID,92.4939,VALID,0,VALID,23.6427,VALID,146,VALID,0.435156,
2009-10-29, 02:21:04,VALID,999.591,VALID,0,VALID,92.2803,VALID,0.112286,VALID,23.6409,VALID,146,VALID,0.535937,
2009-10-29, 02:22:04,VALID,999.566,VALID,0,VALID,92.2192,VALID,0,VALID,23.6817,VALID,146,VALID,0.367578,
2009-10-29, 02:23:04,VALID,999.572,VALID,0,VALID,92.1734,VALID,0,VALID,23.6799,VALID,146,VALID,0.263281,
2009-10-29, 02:24:04,VALID,999.605,VALID,0,VALID,92.12,VALID,0,VALID,23.7207,VALID,146,VALID,0.203906,
2009-10-29, 02:25:04,VALID,999.609,VALID,0,VALID,92.0895,VALID,0,VALID,23.7207,VALID,146,VALID,0.360156,
2009-10-29, 02:26:04,VALID,999.613,VALID,0,VALID,92.0666,VALID,0,VALID,23.7384,VALID,146,VALID,0.431641,
2009-10-29, 02:27:04,VALID,999.626,VALID,0,VALID,91.8835,VALID,0,VALID,23.7597,VALID,146,VALID,0.240234,
2009-10-29, 02:28:04,VALID,999.635,VALID,0,VALID,91.8072,VALID,0,VALID,23.7384,VALID,146,VALID,0.240625,
2009-10-29, 02:29:04,VALID,999.661,VALID,0,VALID,91.7309,VALID,0,VALID,23.7597,VALID,146,VALID,0.0667969,
2009-10-29, 02:30:04,VALID,999.654,VALID,0,VALID,91.7385,VALID,0,VALID,23.7402,VALID,146,VALID,0,
2009-10-29, 02:31:04,VALID,999.636,VALID,0,VALID,91.7385,VALID,0,VALID,23.7402,VALID,146,VALID,0,
2009-10-29, 02:32:04,VALID,999.616,VALID,0,VALID,91.7691,VALID,0,VALID,23.7811,VALID,146,VALID,0,
2009-10-29, 02:33:04,VALID,999.597,VALID,0,VALID,91.7309,VALID,0,VALID,23.8006,VALID,146,VALID,0,
2009-10-29, 02:34:04,VALID,999.573,VALID,0,VALID,91.5554,VALID,0,VALID,23.7811,VALID,111,VALID,0,
2009-10-29, 02:35:04,VALID,999.511,VALID,0,VALID,91.5478,VALID,0,VALID,23.7793,VALID,111,VALID,0,
2009-10-29, 02:36:04,VALID,999.485,VALID,0,VALID,91.5478,VALID,0,VALID,23.7793,VALID,110,VALID,0.797656,
2009-10-29, 02:37:04,VALID,999.47,VALID,0,VALID,91.6546,VALID,0,VALID,23.8201,VALID,109,VALID,1.00625,
2009-10-29, 02:38:04,VALID,999.424,VALID,0,VALID,91.6165,VALID,0,VALID,23.7988,VALID,109,VALID,0.785156,
2009-10-29, 02:39:04,VALID,999.414,VALID,0,VALID,91.6241,VALID,0,VALID,23.7988,VALID,112,VALID,0.738672,
2009-10-29, 02:40:04,VALID,999.427,VALID,0,VALID,91.6165,VALID,0,VALID,23.8183,VALID,114,VALID,0.511719,
2009-10-29, 02:41:04,VALID,999.398,VALID,0,VALID,91.6088,VALID,0,VALID,23.8183,VALID,114,VALID,0.542188,
2009-10-29, 02:42:04,VALID,999.38,VALID,0,VALID,91.6165,VALID,0,VALID,23.8183,VALID,114,VALID,0.404297,
2009-10-29, 02:43:04,VALID,999.386,VALID,0,VALID,91.6241,VALID,0,VALID,23.8183,VALID,114,VALID,0.20625,
2009-10-29, 02:44:04,VALID,999.407,VALID,0,VALID,91.586,VALID,0,VALID,23.8396,VALID,114,VALID,0.3,
2009-10-29, 02:45:04,VALID,999.38,VALID,0,VALID,91.6165,VALID,0,VALID,23.797,VALID,114,VALID,0.214062,
2009-10-29, 02:46:04,VALID,999.372,VALID,0,VALID,91.6165,VALID,0.112286,VALID,23.8165,VALID,110,VALID,0.0539063,
2009-10-29, 02:47:04,VALID,999.365,VALID,0,VALID,91.6623,VALID,0,VALID,23.8183,VALID,110,VALID,0.403516,
2009-10-29, 02:48:04,VALID,999.356,VALID,0,VALID,91.7004,VALID,0,VALID,23.797,VALID,110,VALID,0.489453,
2009-10-29, 02:49:04,VALID,999.349,VALID,0,VALID,91.7233,VALID,0,VALID,23.797,VALID,110,VALID,0.204297,
2009-10-29, 02:50:04,VALID,999.33,VALID,0,VALID,91.7233,VALID,0.112286,VALID,23.8165,VALID,110,VALID,0.302734,
2009-10-29, 02:51:04,VALID,999.345,VALID,0,VALID,91.6775,VALID,0,VALID,23.8165,VALID,110,VALID,0.0132813,
2009-10-29, 02:52:04,VALID,999.336,VALID,0,VALID,91.6928,VALID,0.112286,VALID,23.8183,VALID,110,VALID,0,
2009-10-29, 02:53:04,VALID,999.338,VALID,0,VALID,91.7462,VALID,0,VALID,23.797,VALID,110,VALID,0,
2009-10-29, 02:54:04,VALID,999.357,VALID,0,VALID,91.7462,VALID,0,VALID,23.8183,VALID,110,VALID,0,
2009-10-29, 02:55:04,VALID,999.381,VALID,0,VALID,91.7385,VALID,0,VALID,23.7579,VALID,110,VALID,0,
2009-10-29, 02:56:04,VALID,999.409,VALID,0,VALID,91.7843,VALID,0,VALID,23.797,VALID,110,VALID,0.1875,
2009-10-29, 02:57:04,VALID,999.419,VALID,0,VALID,91.7538,VALID,0,VALID,23.7988,VALID,110,VALID,0,
2009-10-29, 02:58:04,VALID,999.441,VALID,0,VALID,91.8148,VALID,0,VALID,23.7775,VALID,110,VALID,0.0648438,
2009-10-29, 02:59:04,VALID,999.502,VALID,0,VALID,91.8454,VALID,0,VALID,23.7775,VALID,110,VALID,0.0488281,
2009-10-29, 03:00:04,VALID,999.525,VALID,0,VALID,91.8911,VALID,0,VALID,23.8201,VALID,110,VALID,0.264844,
2009-10-29, 03:01:04,VALID,999.57,VALID,0,VALID,91.853,VALID,0,VALID,23.8396,VALID,110,VALID,0.227344,
2009-10-29, 03:02:04,VALID,999.568,VALID,0,VALID,91.8301,VALID,0,VALID,23.8378,VALID,110,VALID,0.140625,
2009-10-29, 03:03:04,VALID,999.59,VALID,0,VALID,91.7691,VALID,0,VALID,23.8591,VALID,110,VALID,0.403516,
2009-10-29, 03:04:04,VALID,999.586,VALID,0,VALID,91.7004,VALID,0,VALID,23.8591,VALID,110,VALID,0.288281,
2009-10-29, 03:05:04,VALID,999.565,VALID,0,VALID,91.6928,VALID,0,VALID,23.8786,VALID,103,VALID,0.283984,
2009-10-29, 03:06:04,VALID,999.552,VALID,0,VALID,91.5249,VALID,0,VALID,23.8573,VALID,103,VALID,0.396484,
2009-10-29, 03:07:04,VALID,999.573,VALID,0,VALID,91.5554,VALID,0,VALID,23.8591,VALID,103,VALID,0.412891,
2009-10-29, 03:08:04,VALID,999.591,VALID,0,VALID,91.647,VALID,0,VALID,23.8982,VALID,108,VALID,0.602344,
2009-10-29, 03:09:04,VALID,999.559,VALID,0,VALID,91.6928,VALID,0,VALID,23.9177,VALID,111,VALID,0.364453,
2009-10-29, 03:10:04,VALID,999.609,VALID,0,VALID,91.5936,VALID,0,VALID,23.8963,VALID,111,VALID,0.529688,
2009-10-29, 03:11:04,VALID,999.585,VALID,0,VALID,91.5631,VALID,0,VALID,23.9567,VALID,111,VALID,0.265625,
2009-10-29, 03:12:04,VALID,999.604,VALID,0,VALID,91.4944,VALID,0,VALID,23.9354,VALID,111,VALID,0.01875,
2009-10-29, 03:13:04,VALID,999.589,VALID,0,VALID,91.441,VALID,0,VALID,23.9354,VALID,111,VALID,0,
2009-10-29, 03:14:04,VALID,999.604,VALID,0,VALID,91.4181,VALID,0,VALID,23.9549,VALID,111,VALID,0.0015625,
2009-10-29, 03:15:04,VALID,999.579,VALID,0,VALID,91.4028,VALID,0,VALID,23.9354,VALID,111,VALID,0.272266,
2009-10-29, 03:16:04,VALID,999.561,VALID,0,VALID,91.3952,VALID,0,VALID,23.9354,VALID,110,VALID,0.523047,
2009-10-29, 03:17:04,VALID,999.542,VALID,0,VALID,91.4486,VALID,0,VALID,23.9354,VALID,109,VALID,0.279687,
2009-10-29, 03:18:04,VALID,999.536,VALID,0,VALID,91.502,VALID,0,VALID,23.9744,VALID,109,VALID,0.0761719,
2009-10-29, 03:19:04,VALID,999.53,VALID,0,VALID,91.4334,VALID,0,VALID,23.9744,VALID,109,VALID,0.213672,
2009-10-29, 03:20:04,VALID,999.526,VALID,0,VALID,91.3876,VALID,0,VALID,23.9744,VALID,109,VALID,0.233594,
2009-10-29, 03:21:04,VALID,999.56,VALID,0,VALID,91.38,VALID,0,VALID,23.9957,VALID,359,VALID,0.660937,
2009-10-29, 03:22:04,VALID,999.557,VALID,0,VALID,91.4334,VALID,0,VALID,23.9744,VALID,313,VALID,0.699219,
2009-10-29, 03:23:04,VALID,999.605,VALID,0,VALID,91.5173,VALID,0,VALID,23.9744,VALID,288,VALID,1.01055,
2009-10-29, 03:24:04,VALID,999.635,VALID,0,VALID,91.7004,VALID,0,VALID,24.0153,VALID,247,VALID,0.901953,
2009-10-29, 03:25:04,VALID,999.667,VALID,0,VALID,91.6088,VALID,0,VALID,23.9939,VALID,238,VALID,1.04023,
2009-10-29, 03:26:04,VALID,999.665,VALID,0,VALID,91.5097,VALID,0,VALID,24.0153,VALID,230,VALID,1.20586,
2009-10-29, 03:27:04,VALID,999.659,VALID,0,VALID,91.4334,VALID,0,VALID,24.0134,VALID,250,VALID,0.7875,
2009-10-29, 03:28:04,VALID,999.689,VALID,0,VALID,91.3647,VALID,0,VALID,24.0329,VALID,255,VALID,0.736719,
2009-10-29, 03:29:04,VALID,999.746,VALID,0,VALID,91.2655,VALID,0,VALID,24.0543,VALID,272,VALID,1.09648,
2009-10-29, 03:30:04,VALID,999.734,VALID,0,VALID,91.1663,VALID,0,VALID,24.0525,VALID,260,VALID,0.774609,
2009-10-29, 03:31:04,VALID,999.785,VALID,0,VALID,91.0443,VALID,0,VALID,24.0738,VALID,239,VALID,1.10938,
2009-10-29, 03:32:04,VALID,999.793,VALID,0,VALID,90.9146,VALID,0,VALID,24.0738,VALID,232,VALID,0.722266,
2009-10-29, 03:33:04,VALID,999.78,VALID,0,VALID,90.8917,VALID,0,VALID,24.0933,VALID,231,VALID,0.433203,
2009-10-29, 03:34:04,VALID,999.762,VALID,0,VALID,90.8001,VALID,0,VALID,24.1128,VALID,231,VALID,0,
2009-10-29, 03:35:04,VALID,999.766,VALID,0,VALID,90.678,VALID,0,VALID,24.1324,VALID,231,VALID,0.291406,
2009-10-29, 03:36:04,VALID,999.764,VALID,0,VALID,90.6017,VALID,0,VALID,24.0933,VALID,179,VALID,0.546094,
2009-10-29, 03:37:04,VALID,999.729,VALID,0,VALID,90.472,VALID,0,VALID,24.111,VALID,140,VALID,0.641406,
2009-10-29, 03:38:04,VALID,999.748,VALID,0,VALID,90.2813,VALID,0,VALID,24.1519,VALID,122,VALID,0.966797,
2009-10-29, 03:39:04,VALID,999.727,VALID,0,VALID,90.1821,VALID,0,VALID,24.1909,VALID,115,VALID,0.979297,
2009-10-29, 03:40:04,VALID,999.718,VALID,0,VALID,90.1287,VALID,0,VALID,24.2299,VALID,117,VALID,0.712891,
2009-10-29, 03:41:04,VALID,999.707,VALID,0,VALID,90.0448,VALID,0,VALID,24.2086,VALID,122,VALID,0.923828,
2009-10-29, 03:42:04,VALID,999.7,VALID,0,VALID,89.9761,VALID,0,VALID,24.2281,VALID,130,VALID,0.544141,
2009-10-29, 03:43:04,VALID,999.682,VALID,0,VALID,89.9609,VALID,0,VALID,24.2495,VALID,130,VALID,0.652734,
2009-10-29, 03:44:04,VALID,999.667,VALID,0,VALID,90.0219,VALID,0,VALID,24.2495,VALID,138,VALID,0.647656,
2009-10-29, 03:45:04,VALID,999.581,VALID,0,VALID,90.205,VALID,0,VALID,24.2299,VALID,131,VALID,1.13711,